| time (UTC) | temp C | wind direction | speed KPH | gust KPH | rain 1hr cm | rain 24hr cm | rain mn cm | humidity % | barometer mb |
| 20260509154020 | 12 | 182 | 0.0 | 0.0 | 0.00 | 0.25 | 0.00 | 97 | 987.5 |
| 20260509153519 | 12 | 182 | 0.0 | 0.0 | 0.00 | 0.25 | 0.00 | 97 | 987.6 |
| 20260509153017 | 12 | 182 | 0.0 | 0.0 | 0.00 | 0.25 | 0.00 | 97 | 987.6 |
| 20260509152518 | 12 | 182 | 0.0 | 0.0 | 0.00 | 0.25 | 0.00 | 97 | 987.6 |
| 20260509152017 | 12 | 182 | 0.0 | 0.0 | 0.00 | 0.25 | 0.00 | 97 | 987.6 |
| 20260509151515 | 12 | 182 | 0.0 | 0.0 | 0.00 | 0.25 | 0.00 | 97 | 987.4 |
| 20260509151015 | 12 | 182 | 0.0 | 0.0 | 0.00 | 0.25 | 0.00 | 97 | 987.5 |
| 20260509150514 | 12 | 182 | 0.0 | 0.0 | 0.00 | 0.25 | 0.00 | 97 | 987.5 |
| 20260509150014 | 12 | 182 | 0.0 | 3.2 | 0.00 | 0.25 | 0.00 | 97 | 987.6 |
| 20260509145514 | 12 | 182 | 0.0 | 3.2 | 0.00 | 0.25 | 0.00 | 97 | 987.5 |
| 20260509145017 | 12 | 182 | 0.0 | 3.2 | 0.00 | 0.25 | 0.00 | 97 | 987.6 |
| 20260509144512 | 12 | 182 | 0.0 | 0.0 | 0.00 | 0.25 | 0.00 | 97 | 987.5 |
| 20260509144012 | 12 | 182 | 0.0 | 1.6 | 0.00 | 0.25 | 0.00 | 97 | 987.6 |
| 20260509143511 | 12 | 182 | 0.0 | 3.2 | 0.00 | 0.25 | 0.00 | 97 | 987.5 |
| 20260509143013 | 11 | 182 | 0.0 | 4.8 | 0.00 | 0.25 | 0.00 | 96 | 987.6 |
| 20260509142510 | 11 | 182 | 0.0 | 4.8 | 0.00 | 0.25 | 0.00 | 96 | 987.5 |
| 20260509142012 | 12 | 182 | 0.0 | 0.0 | 0.00 | 0.25 | 0.00 | 96 | 987.5 |
| 20260509141518 | 12 | 182 | 0.0 | 0.0 | 0.00 | 0.25 | 0.00 | 96 | 987.4 |
| 20260509141007 | 12 | 182 | 0.0 | 0.0 | 0.00 | 0.25 | 0.00 | 96 | 987.4 |
| 20260509140506 | 12 | 182 | 0.0 | 0.0 | 0.00 | 0.25 | 0.00 | 96 | 987.4 |
| 20260509140006 | 12 | 182 | 0.0 | 0.0 | 0.00 | 0.25 | 0.00 | 96 | 987.4 |
| 20260509135506 | 12 | 182 | 0.0 | 0.0 | 0.00 | 0.25 | 0.00 | 96 | 987.4 |
| 20260509135005 | 12 | 182 | 0.0 | 0.0 | 0.00 | 0.25 | 0.00 | 96 | 987.3 |
| 20260509134504 | 12 | 182 | 0.0 | 0.0 | 0.00 | 0.25 | 0.00 | 96 | 987.3 |
| 20260509134003 | 12 | 182 | 0.0 | 0.0 | 0.00 | 0.25 | 0.00 | 96 | 987.4 |
| 20260509133603 | 12 | 182 | 0.0 | 0.0 | 0.00 | 0.25 | 0.00 | 96 | 987.3 |
| 20260509133001 | 12 | 182 | 0.0 | 0.0 | 0.00 | 0.25 | 0.00 | 97 | 987.3 |
| 20260509132601 | 12 | 182 | 0.0 | 0.0 | 0.00 | 0.25 | 0.00 | 96 | 987.3 |
| 20260509132102 | 12 | 182 | 0.0 | 0.0 | 0.00 | 0.25 | 0.00 | 96 | 987.1 |
| 20260509131635 | 12 | 182 | 0.0 | 0.0 | 0.00 | 0.25 | 0.00 | 96 | 987.1 |
| 20260509131100 | 12 | 182 | 0.0 | 0.0 | 0.00 | 0.25 | 0.00 | 96 | 987.0 |
| 20260509130600 | 12 | 182 | 0.0 | 0.0 | 0.00 | 0.25 | 0.00 | 96 | 986.9 |
| 20260509130130 | 12 | 182 | 0.0 | 0.0 | 0.00 | 0.25 | 0.00 | 96 | 986.9 |
| 20260509125558 | 12 | 182 | 0.0 | 0.0 | 0.00 | 0.25 | 0.00 | 96 | 986.8 |
| 20260509125059 | 12 | 182 | 0.0 | 0.0 | 0.00 | 0.25 | 0.00 | 96 | 986.9 |
| 20260509124558 | 12 | 182 | 0.0 | 0.0 | 0.00 | 0.25 | 0.00 | 96 | 986.7 |
| 20260509124059 | 12 | 182 | 0.0 | 0.0 | 0.00 | 0.25 | 0.00 | 96 | 986.8 |
| 20260509123559 | 12 | 182 | 0.0 | 0.0 | 0.00 | 0.25 | 0.00 | 96 | 986.7 |
| 20260509123103 | 12 | 182 | 0.0 | 0.0 | 0.00 | 0.25 | 0.00 | 96 | 986.8 |
| 20260509122557 | 12 | 182 | 0.0 | 0.0 | 0.00 | 0.25 | 0.00 | 96 | 986.8 |
| 20260509122100 | 12 | 182 | 0.0 | 0.0 | 0.00 | 0.25 | 0.00 | 96 | 986.7 |
| 20260509121557 | 12 | 182 | 0.0 | 0.0 | 0.00 | 0.25 | 0.00 | 96 | 986.8 |
| 20260509121100 | 12 | 182 | 0.0 | 0.0 | 0.00 | 0.25 | 0.00 | 96 | 986.7 |
| 20260509120559 | 12 | 182 | 0.0 | 0.0 | 0.00 | 0.25 | 0.00 | 96 | 986.7 |
| 20260509120105 | 12 | 182 | 0.0 | 0.0 | 0.00 | 0.25 | 0.00 | 96 | 986.7 |
| 20260509115556 | 12 | 182 | 0.0 | 0.0 | 0.00 | 0.25 | 0.00 | 96 | 986.7 |
| 20260509115056 | 12 | 182 | 0.0 | 0.0 | 0.00 | 0.25 | 0.00 | 96 | 986.8 |
| 20260509114609 | 12 | 182 | 0.0 | 0.0 | 0.00 | 0.25 | 0.00 | 96 | 986.9 |
| 20260509114056 | 12 | 182 | 0.0 | 0.0 | 0.00 | 0.25 | 0.00 | 96 | 986.9 |
| 20260509113555 | 12 | 182 | 0.0 | 0.0 | 0.00 | 0.25 | 0.00 | 96 | 986.9 |
| 20260509113058 | 12 | 182 | 0.0 | 0.0 | 0.00 | 0.25 | 0.00 | 96 | 986.9 |
| 20260509112554 | 12 | 182 | 0.0 | 0.0 | 0.00 | 0.25 | 0.00 | 96 | 986.8 |
| 20260509112056 | 11 | 182 | 0.0 | 0.0 | 0.00 | 0.25 | 0.00 | 96 | 986.9 |
| 20260509111555 | 11 | 182 | 0.0 | 0.0 | 0.00 | 0.25 | 0.00 | 96 | 986.9 |
| 20260509111054 | 11 | 182 | 0.0 | 0.0 | 0.00 | 0.25 | 0.00 | 96 | 986.9 |
| 20260509111020 | 11 | 182 | 0.0 | 0.0 | 0.00 | 0.25 | 0.00 | 96 | 987.0 |
| 20260509110555 | 11 | 182 | 0.0 | 0.0 | 0.00 | 0.25 | 0.00 | 96 | 986.9 |
| 20260509110104 | 11 | 182 | 0.0 | 0.0 | 0.00 | 0.25 | 0.00 | 96 | 986.9 |
| 20260509105556 | 11 | 182 | 0.0 | 0.0 | 0.00 | 0.25 | 0.00 | 96 | 986.9 |
| 20260509105053 | 11 | 182 | 0.0 | 0.0 | 0.00 | 0.25 | 0.00 | 95 | 986.9 |
| 20260509104558 | 11 | 182 | 0.0 | 0.0 | 0.00 | 0.25 | 0.00 | 95 | 986.9 |
| 20260509104052 | 11 | 182 | 0.0 | 0.0 | 0.00 | 0.25 | 0.00 | 95 | 987.0 |
| 20260509103554 | 12 | 182 | 0.0 | 0.0 | 0.00 | 0.25 | 0.00 | 95 | 986.9 |
| 20260509103052 | 12 | 182 | 0.0 | 0.0 | 0.00 | 0.25 | 0.00 | 96 | 986.9 |
| 20260509102552 | 12 | 182 | 0.0 | 0.0 | 0.00 | 0.25 | 0.00 | 96 | 987.0 |
| 20260509102052 | 12 | 182 | 0.0 | 0.0 | 0.00 | 0.25 | 0.00 | 95 | 987.0 |
| 20260509101553 | 12 | 182 | 0.0 | 0.0 | 0.00 | 0.25 | 0.00 | 96 | 987.0 |
| 20260509101055 | 12 | 182 | 0.0 | 0.0 | 0.00 | 0.25 | 0.00 | 96 | 987.0 |
| 20260509100551 | 11 | 182 | 0.0 | 0.0 | 0.00 | 0.25 | 0.00 | 95 | 987.0 |
| 20260509100053 | 11 | 182 | 0.0 | 0.0 | 0.00 | 0.25 | 0.00 | 95 | 987.0 |
| 20260509095553 | 11 | 182 | 0.0 | 0.0 | 0.00 | 0.25 | 0.00 | 95 | 987.0 |
| 20260509095050 | 11 | 182 | 0.0 | 0.0 | 0.00 | 0.25 | 0.00 | 95 | 986.9 |
| 20260509094554 | 11 | 182 | 0.0 | 0.0 | 0.00 | 0.25 | 0.00 | 95 | 986.9 |
| 20260509094050 | 11 | 182 | 0.0 | 0.0 | 0.00 | 0.25 | 0.00 | 95 | 986.9 |
| 20260509093550 | 11 | 182 | 0.0 | 0.0 | 0.00 | 0.25 | 0.00 | 95 | 987.0 |
| 20260509093050 | 11 | 182 | 0.0 | 0.0 | 0.00 | 0.25 | 0.00 | 95 | 987.0 |
| 20260509092552 | 11 | 182 | 0.0 | 0.0 | 0.00 | 0.25 | 0.00 | 95 | 987.0 |
| 20260509092049 | 11 | 182 | 0.0 | 0.0 | 0.00 | 0.25 | 0.00 | 95 | 987.0 |
| 20260509091549 | 11 | 182 | 0.0 | 0.0 | 0.00 | 0.25 | 0.00 | 95 | 987.0 |
| 20260509091049 | 11 | 182 | 0.0 | 0.0 | 0.00 | 0.25 | 0.00 | 94 | 987.1 |
| 20260509090549 | 11 | 182 | 0.0 | 0.0 | 0.00 | 0.25 | 0.00 | 94 | 987.0 |
| 20260509090100 | 11 | 182 | 0.0 | 0.0 | 0.00 | 0.25 | 0.00 | 94 | 987.1 |
| 20260509085547 | 11 | 182 | 0.0 | 0.0 | 0.00 | 0.25 | 0.00 | 95 | 987.1 |
| 20260509085047 | 11 | 182 | 0.0 | 0.0 | 0.00 | 0.25 | 0.00 | 94 | 987.1 |
| 20260509084557 | 11 | 182 | 0.0 | 0.0 | 0.00 | 0.25 | 0.00 | 94 | 987.1 |
| 20260509084048 | 11 | 182 | 0.0 | 0.0 | 0.00 | 0.25 | 0.00 | 94 | 987.1 |
| 20260509083546 | 11 | 182 | 0.0 | 0.0 | 0.00 | 0.25 | 0.00 | 94 | 987.1 |
| 20260509083049 | 11 | 182 | 0.0 | 0.0 | 0.00 | 0.25 | 0.00 | 94 | 987.2 |
| 20260509082545 | 11 | 182 | 0.0 | 0.0 | 0.00 | 0.25 | 0.00 | 94 | 987.2 |
| 20260509082044 | 12 | 182 | 0.0 | 0.0 | 0.00 | 0.25 | 0.00 | 93 | 987.3 |
| 20260509081545 | 12 | 182 | 0.0 | 0.0 | 0.00 | 0.25 | 0.00 | 94 | 987.3 |
| 20260509081043 | 12 | 182 | 0.0 | 0.0 | 0.00 | 0.25 | 0.00 | 94 | 987.4 |
| 20260509080542 | 12 | 182 | 0.0 | 0.0 | 0.00 | 0.25 | 0.00 | 93 | 987.4 |
| 20260509080041 | 12 | 182 | 0.0 | 0.0 | 0.00 | 0.25 | 0.00 | 93 | 987.4 |
| 20260509075541 | 12 | 182 | 0.0 | 0.0 | 0.00 | 0.25 | 0.00 | 93 | 987.5 |
| 20260509075041 | 12 | 182 | 0.0 | 0.0 | 0.00 | 0.25 | 0.00 | 94 | 987.5 |
| 20260509074548 | 12 | 182 | 0.0 | 0.0 | 0.00 | 0.25 | 0.00 | 93 | 987.5 |
| 20260509074041 | 12 | 182 | 0.0 | 0.0 | 0.00 | 0.25 | 0.00 | 94 | 987.6 |
| 20260509073541 | 12 | 182 | 0.0 | 0.0 | 0.00 | 0.25 | 0.00 | 93 | 987.5 |
| 20260509073039 | 12 | 182 | 0.0 | 0.0 | 0.00 | 0.25 | 0.00 | 93 | 987.4 |
| 20260509072544 | 12 | 182 | 0.0 | 0.0 | 0.00 | 0.25 | 0.00 | 93 | 987.5 |
| 20260509072039 | 12 | 182 | 0.0 | 0.0 | 0.00 | 0.25 | 0.00 | 93 | 987.5 |
| 20260509071539 | 12 | 182 | 0.0 | 0.0 | 0.00 | 0.25 | 0.00 | 93 | 987.5 |
| 20260509071038 | 12 | 182 | 0.0 | 0.0 | 0.00 | 0.25 | 0.00 | 93 | 987.4 |
| 20260509070539 | 12 | 182 | 0.0 | 0.0 | 0.00 | 0.25 | 0.00 | 93 | 987.5 |
| 20260509070037 | 12 | 182 | 0.0 | 0.0 | 0.00 | 0.25 | 0.00 | 93 | 987.6 |
| 20260509065539 | 12 | 182 | 0.0 | 0.0 | 0.00 | 0.25 | 0.25 | 93 | 987.5 |
| 20260509065037 | 12 | 182 | 0.0 | 0.0 | 0.00 | 0.25 | 0.25 | 93 | 987.5 |
| 20260509064537 | 12 | 182 | 0.0 | 0.0 | 0.00 | 0.25 | 0.25 | 93 | 987.5 |
| 20260509064037 | 12 | 182 | 0.0 | 0.0 | 0.00 | 0.25 | 0.25 | 93 | 987.5 |
| 20260509063536 | 12 | 182 | 0.0 | 0.0 | 0.00 | 0.25 | 0.25 | 92 | 987.6 |
| 20260509063035 | 12 | 182 | 0.0 | 0.0 | 0.00 | 0.25 | 0.25 | 92 | 987.6 |
| 20260509062536 | 12 | 182 | 0.0 | 0.0 | 0.00 | 0.25 | 0.25 | 92 | 987.6 |
| 20260509062036 | 12 | 182 | 0.0 | 0.0 | 0.00 | 0.25 | 0.25 | 92 | 987.6 |
| 20260509061536 | 12 | 182 | 0.0 | 0.0 | 0.00 | 0.25 | 0.25 | 92 | 987.7 |
| 20260509061035 | 13 | 182 | 0.0 | 0.0 | 0.00 | 0.25 | 0.25 | 92 | 987.7 |
| 20260509060535 | 13 | 182 | 0.0 | 0.0 | 0.00 | 0.25 | 0.25 | 92 | 987.7 |
| 20260509060036 | 13 | 182 | 0.0 | 0.0 | 0.00 | 0.25 | 0.25 | 92 | 987.7 |
| 20260509055536 | 13 | 182 | 0.0 | 0.0 | 0.00 | 0.25 | 0.25 | 92 | 987.7 |
| 20260509055035 | 13 | 182 | 0.0 | 0.0 | 0.00 | 0.25 | 0.25 | 92 | 987.8 |
| 20260509054542 | 13 | 182 | 0.0 | 0.0 | 0.00 | 0.25 | 0.25 | 92 | 987.8 |
| 20260509054033 | 13 | 182 | 0.0 | 0.0 | 0.00 | 0.25 | 0.25 | 92 | 987.8 |
| 20260509053534 | 13 | 182 | 0.0 | 0.0 | 0.00 | 0.25 | 0.25 | 91 | 987.8 |
| 20260509053115 | 13 | 182 | 0.0 | 0.0 | 0.00 | 0.25 | 0.25 | 91 | 987.8 |
| 20260509052536 | 13 | 182 | 0.0 | 0.0 | 0.00 | 0.25 | 0.25 | 91 | 987.8 |
| 20260509052032 | 13 | 182 | 0.0 | 0.0 | 0.00 | 0.25 | 0.25 | 91 | 987.7 |
| 20260509051542 | 13 | 182 | 0.0 | 0.0 | 0.00 | 0.25 | 0.25 | 91 | 987.8 |
| 20260509051033 | 13 | 182 | 0.0 | 0.0 | 0.00 | 0.25 | 0.25 | 91 | 987.8 |
| 20260509050532 | 13 | 182 | 0.0 | 0.0 | 0.00 | 0.25 | 0.25 | 91 | 987.7 |
| 20260509050043 | 13 | 182 | 0.0 | 0.0 | 0.00 | 0.25 | 0.25 | 90 | 987.8 |
| 20260509045531 | 13 | 182 | 0.0 | 0.0 | 0.00 | 0.25 | 0.25 | 90 | 987.7 |
| 20260509045031 | 13 | 182 | 0.0 | 0.0 | 0.00 | 0.25 | 0.25 | 89 | 987.6 |
| 20260509044531 | 13 | 182 | 0.0 | 0.0 | 0.00 | 0.25 | 0.25 | 89 | 987.5 |
| 20260509044032 | 13 | 182 | 0.0 | 0.0 | 0.00 | 0.25 | 0.25 | 90 | 987.5 |
| 20260509043532 | 13 | 182 | 0.0 | 0.0 | 0.00 | 0.25 | 0.25 | 90 | 987.4 |
| 20260509043031 | 14 | 182 | 0.0 | 0.0 | 0.00 | 0.25 | 0.25 | 90 | 987.3 |
| 20260509042531 | 14 | 182 | 0.0 | 0.0 | 0.00 | 0.25 | 0.25 | 90 | 987.3 |
| 20260509042030 | 14 | 182 | 0.0 | 0.0 | 0.00 | 0.25 | 0.25 | 90 | 987.4 |
| 20260509041531 | 14 | 182 | 0.0 | 0.0 | 0.00 | 0.25 | 0.25 | 89 | 987.3 |
| 20260509041029 | 14 | 182 | 0.0 | 0.0 | 0.00 | 0.25 | 0.25 | 89 | 987.3 |
| 20260509040530 | 14 | 182 | 0.0 | 0.0 | 0.00 | 0.25 | 0.25 | 88 | 987.2 |
| 20260509040030 | 14 | 182 | 0.0 | 0.0 | 0.00 | 0.25 | 0.25 | 88 | 987.1 |
| 20260509035530 | 14 | 182 | 0.0 | 0.0 | 0.00 | 0.25 | 0.25 | 88 | 987.0 |
| 20260509035034 | 14 | 182 | 0.0 | 0.0 | 0.00 | 0.25 | 0.25 | 88 | 987.0 |
| 20260509034530 | 15 | 182 | 0.0 | 0.0 | 0.00 | 0.25 | 0.25 | 87 | 987.0 |
| 20260509034031 | 15 | 182 | 0.0 | 0.0 | 0.00 | 0.25 | 0.25 | 87 | 986.9 |
| 20260509033529 | 15 | 182 | 0.0 | 0.0 | 0.00 | 0.25 | 0.25 | 87 | 986.9 |
| 20260509033029 | 15 | 182 | 0.0 | 0.0 | 0.00 | 0.25 | 0.25 | 86 | 986.9 |
| 20260509032529 | 15 | 182 | 0.0 | 0.0 | 0.00 | 0.25 | 0.25 | 86 | 986.8 |
| 20260509032028 | 15 | 182 | 0.0 | 0.0 | 0.00 | 0.25 | 0.25 | 85 | 986.7 |
| 20260509031528 | 15 | 182 | 0.0 | 0.0 | 0.00 | 0.25 | 0.25 | 85 | 986.7 |
| 20260509031028 | 15 | 182 | 0.0 | 0.0 | 0.00 | 0.25 | 0.25 | 84 | 986.7 |
| 20260509030528 | 16 | 182 | 0.0 | 0.0 | 0.00 | 0.25 | 0.25 | 83 | 986.7 |
| 20260509030033 | 16 | 182 | 0.0 | 0.0 | 0.00 | 0.25 | 0.25 | 83 | 986.6 |
| 20260509025528 | 16 | 182 | 0.0 | 0.0 | 0.00 | 0.25 | 0.25 | 83 | 986.7 |
| 20260509025027 | 16 | 182 | 0.0 | 0.0 | 0.00 | 0.25 | 0.25 | 83 | 986.6 |
| 20260509024529 | 16 | 182 | 0.0 | 0.0 | 0.00 | 0.25 | 0.25 | 82 | 986.6 |
| 20260509024029 | 16 | 182 | 0.0 | 0.0 | 0.00 | 0.25 | 0.25 | 82 | 986.7 |
| 20260509023529 | 17 | 182 | 0.0 | 0.0 | 0.00 | 0.25 | 0.25 | 81 | 986.6 |
| 20260509023030 | 17 | 182 | 0.0 | 6.4 | 0.00 | 0.25 | 0.25 | 81 | 986.6 |
| 20260509022530 | 17 | 182 | 1.6 | 6.4 | 0.00 | 0.25 | 0.25 | 81 | 986.6 |
| 20260509022030 | 17 | 182 | 1.6 | 6.4 | 0.00 | 0.25 | 0.25 | 80 | 986.5 |
| 20260509021527 | 17 | 182 | 3.2 | 6.4 | 0.00 | 0.25 | 0.25 | 80 | 986.5 |
| 20260509021026 | 17 | 182 | 3.2 | 6.4 | 0.00 | 0.25 | 0.25 | 79 | 986.5 |
| 20260509020526 | 18 | 182 | 3.2 | 6.4 | 0.00 | 0.25 | 0.25 | 79 | 986.3 |
| 20260509020026 | 18 | 188 | 3.2 | 6.4 | 0.00 | 0.25 | 0.25 | 78 | 986.3 |
| 20260509015526 | 18 | 188 | 3.2 | 6.4 | 0.00 | 0.25 | 0.25 | 78 | 986.3 |
| 20260509015027 | 18 | 187 | 3.2 | 6.4 | 0.00 | 0.25 | 0.25 | 78 | 986.3 |
| 20260509014528 | 18 | 187 | 1.6 | 6.4 | 0.00 | 0.25 | 0.25 | 78 | 986.2 |
| 20260509014025 | 18 | 184 | 3.2 | 6.4 | 0.00 | 0.25 | 0.25 | 79 | 986.2 |
| 20260509013528 | 18 | 184 | 3.2 | 6.4 | 0.00 | 0.25 | 0.25 | 79 | 986.3 |
| 20260509013028 | 18 | 184 | 1.6 | 8.0 | 0.00 | 0.25 | 0.25 | 79 | 986.3 |
| 20260509012524 | 18 | 184 | 3.2 | 8.0 | 0.00 | 0.25 | 0.25 | 79 | 986.4 |
| 20260509012026 | 18 | 179 | 3.2 | 8.0 | 0.00 | 0.25 | 0.25 | 79 | 986.3 |
| 20260509011524 | 18 | 179 | 3.2 | 8.0 | 0.00 | 0.25 | 0.25 | 78 | 986.4 |
| 20260509011024 | 18 | 179 | 3.2 | 11.3 | 0.00 | 0.25 | 0.25 | 78 | 986.5 |
| 20260509010523 | 18 | 178 | 8.0 | 11.3 | 0.00 | 0.25 | 0.25 | 78 | 986.5 |
| 20260509010023 | 18 | 176 | 6.4 | 11.3 | 0.00 | 0.25 | 0.25 | 78 | 986.4 |
| 20260509005526 | 18 | 165 | 6.4 | 9.7 | 0.00 | 0.25 | 0.25 | 78 | 986.5 |
| 20260509005023 | 18 | 192 | 4.8 | 11.3 | 0.00 | 0.25 | 0.25 | 79 | 986.4 |
| 20260509004527 | 18 | 165 | 6.4 | 9.7 | 0.00 | 0.25 | 0.25 | 79 | 986.4 |
| 20260509004024 | 18 | 141 | 6.4 | 12.9 | 0.00 | 0.25 | 0.25 | 78 | 986.5 |
| 20260509003523 | 18 | 190 | 6.4 | 12.9 | 0.00 | 0.25 | 0.25 | 78 | 986.5 |
| 20260509003041 | 18 | 153 | 8.0 | 14.5 | 0.00 | 0.25 | 0.25 | 78 | 986.5 |
| 20260509002522 | 18 | 206 | 6.4 | 11.3 | 0.00 | 0.25 | 0.25 | 78 | 986.5 |
| 20260509002023 | 19 | 207 | 6.4 | 14.5 | 0.00 | 0.25 | 0.25 | 77 | 986.4 |
| 20260509001522 | 19 | 151 | 8.0 | 14.5 | 0.00 | 0.25 | 0.25 | 77 | 986.4 |
| 20260509001021 | 20 | 186 | 8.0 | 12.9 | 0.00 | 0.25 | 0.25 | 76 | 986.4 |
| 20260509000524 | 19 | 210 | 4.8 | 12.9 | 0.00 | 0.25 | 0.25 | 76 | 986.4 |
| 20260509000021 | 20 | 205 | 8.0 | 14.5 | 0.00 | 0.25 | 0.25 | 76 | 986.4 |
| 20260508235521 | 20 | 167 | 8.0 | 14.5 | 0.00 | 0.25 | 0.25 | 75 | 986.4 |
| 20260508235021 | 20 | 210 | 6.4 | 14.5 | 0.00 | 0.25 | 0.25 | 74 | 986.5 |
| 20260508234525 | 20 | 175 | 6.4 | 16.1 | 0.00 | 0.25 | 0.25 | 75 | 986.5 |
| 20260508234020 | 20 | 180 | 8.0 | 16.1 | 0.00 | 0.25 | 0.25 | 74 | 986.6 |
| 20260508233520 | 20 | 229 | 8.0 | 14.5 | 0.00 | 0.25 | 0.25 | 74 | 986.6 |
| 20260508233019 | 20 | 173 | 4.8 | 16.1 | 0.00 | 0.25 | 0.25 | 75 | 986.6 |
| 20260508232518 | 21 | 202 | 8.0 | 14.5 | 0.00 | 0.25 | 0.25 | 74 | 986.6 |
| 20260508232019 | 21 | 205 | 6.4 | 14.5 | 0.00 | 0.25 | 0.25 | 74 | 986.6 |
| 20260508231517 | 20 | 184 | 6.4 | 16.1 | 0.00 | 0.25 | 0.25 | 74 | 986.8 |
| 20260508231017 | 20 | 194 | 6.4 | 14.5 | 0.00 | 0.25 | 0.25 | 74 | 986.9 |
| 20260508230516 | 21 | 190 | 6.4 | 16.1 | 0.00 | 0.25 | 0.25 | 74 | 986.9 |
| 20260508230016 | 21 | 181 | 9.7 | 16.1 | 0.00 | 0.25 | 0.25 | 74 | 986.9 |
| 20260508225521 | 21 | 173 | 11.3 | 19.3 | 0.00 | 0.25 | 0.25 | 72 | 987.0 |
| 20260508225016 | 21 | 182 | 9.7 | 19.3 | 0.00 | 0.25 | 0.25 | 73 | 987.0 |
| 20260508224514 | 21 | 203 | 8.0 | 16.1 | 0.00 | 0.25 | 0.25 | 73 | 987.0 |
| 20260508224014 | 21 | 173 | 8.0 | 16.1 | 0.00 | 0.25 | 0.25 | 73 | 987.1 |
| 20260508223517 | 21 | 236 | 8.0 | 16.1 | 0.00 | 0.25 | 0.25 | 73 | 987.1 |
| 20260508223017 | 21 | 182 | 9.7 | 16.1 | 0.00 | 0.25 | 0.25 | 72 | 987.2 |
| 20260508222513 | 21 | 186 | 6.4 | 16.1 | 0.00 | 0.25 | 0.25 | 72 | 987.2 |
| 20260508222012 | 21 | 233 | 6.4 | 16.1 | 0.00 | 0.25 | 0.25 | 72 | 987.4 |
| 20260508221517 | 21 | 179 | 11.3 | 17.7 | 0.00 | 0.25 | 0.25 | 72 | 987.5 |
| 20260508221012 | 21 | 200 | 8.0 | 16.1 | 0.00 | 0.25 | 0.25 | 73 | 987.4 |
| 20260508220516 | 21 | 190 | 8.0 | 14.5 | 0.00 | 0.25 | 0.25 | 72 | 987.6 |
| 20260508220016 | 21 | 182 | 9.7 | 14.5 | 0.00 | 0.25 | 0.25 | 71 | 987.7 |
| 20260508215511 | 21 | 169 | 8.0 | 16.1 | 0.00 | 0.25 | 0.25 | 71 | 987.7 |
| 20260508215011 | 22 | 190 | 6.4 | 14.5 | 0.00 | 0.25 | 0.25 | 71 | 987.7 |
| 20260508214511 | 22 | 176 | 8.0 | 14.5 | 0.00 | 0.25 | 0.25 | 71 | 987.7 |
| 20260508214009 | 21 | 202 | 6.4 | 22.5 | 0.00 | 0.25 | 0.25 | 72 | 987.8 |
| 20260508213509 | 22 | 205 | 8.0 | 22.5 | 0.00 | 0.25 | 0.25 | 72 | 987.8 |
| 20260508213008 | 21 | 188 | 6.4 | 16.1 | 0.00 | 0.25 | 0.25 | 73 | 987.9 |
| 20260508212509 | 21 | 237 | 6.4 | 16.1 | 0.00 | 0.25 | 0.25 | 73 | 988.0 |
| 20260508212007 | 21 | 167 | 9.7 | 16.1 | 0.00 | 0.25 | 0.25 | 73 | 988.0 |
| 20260508211506 | 21 | 159 | 9.7 | 17.7 | 0.00 | 0.25 | 0.25 | 73 | 988.1 |
| 20260508211006 | 21 | 202 | 8.0 | 16.1 | 0.00 | 0.25 | 0.25 | 72 | 988.1 |
| 20260508210505 | 21 | 180 | 8.0 | 16.1 | 0.00 | 0.25 | 0.25 | 72 | 988.2 |
| 20260508210004 | 21 | 186 | 9.7 | 16.1 | 0.00 | 0.25 | 0.25 | 74 | 988.3 |
| 20260508205504 | 21 | 227 | 8.0 | 16.1 | 0.00 | 0.25 | 0.25 | 73 | 988.3 |
| 20260508205004 | 21 | 199 | 11.3 | 14.5 | 0.00 | 0.25 | 0.25 | 72 | 988.4 |
| 20260508204506 | 21 | 213 | 8.0 | 12.9 | 0.00 | 0.25 | 0.25 | 74 | 988.4 |
| 20260508204002 | 21 | 174 | 8.0 | 16.1 | 0.00 | 0.25 | 0.25 | 74 | 988.4 |
| 20260508203503 | 21 | 163 | 11.3 | 19.3 | 0.03 | 0.25 | 0.25 | 73 | 988.5 |
| 20260508203001 | 21 | 171 | 9.7 | 17.7 | 0.03 | 0.25 | 0.25 | 74 | 988.6 |
| 20260508202600 | 21 | 204 | 8.0 | 16.1 | 0.03 | 0.25 | 0.25 | 73 | 988.6 |
| 20260508202059 | 21 | 175 | 9.7 | 16.1 | 0.03 | 0.25 | 0.25 | 74 | 988.7 |
| 20260508201610 | 21 | 163 | 9.7 | 17.7 | 0.03 | 0.25 | 0.25 | 75 | 988.7 |
| 20260508201057 | 21 | 168 | 8.0 | 17.7 | 0.03 | 0.25 | 0.25 | 74 | 988.8 |
| 20260508200557 | 20 | 188 | 8.0 | 16.1 | 0.03 | 0.25 | 0.25 | 75 | 988.8 |
| 20260508200106 | 20 | 184 | 6.4 | 14.5 | 0.03 | 0.25 | 0.25 | 76 | 988.9 |
| 20260508195555 | 20 | 188 | 9.7 | 14.5 | 0.03 | 0.25 | 0.25 | 77 | 988.9 |
| 20260508195054 | 20 | 182 | 8.0 | 16.1 | 0.03 | 0.25 | 0.25 | 79 | 989.0 |
| 20260508194558 | 20 | 184 | 8.0 | 16.1 | 0.03 | 0.25 | 0.25 | 78 | 989.1 |
| 20260508194057 | 20 | 178 | 9.7 | 16.1 | 0.03 | 0.25 | 0.25 | 78 | 989.0 |
| 20260508193554 | 20 | 243 | 8.0 | 14.5 | 0.00 | 0.23 | 0.23 | 78 | 989.0 |
| 20260508193100 | 20 | 198 | 6.4 | 12.9 | 0.00 | 0.23 | 0.23 | 78 | 989.1 |
| 20260508192551 | 19 | 175 | 8.0 | 12.9 | 0.00 | 0.23 | 0.23 | 79 | 989.2 |
| 20260508192050 | 19 | 186 | 4.8 | 11.3 | 0.00 | 0.23 | 0.23 | 79 | 989.2 |
| 20260508191550 | 18 | 125 | 4.8 | 12.9 | 0.00 | 0.23 | 0.23 | 81 | 989.1 |
| 20260508191048 | 18 | 175 | 4.8 | 11.3 | 0.00 | 0.23 | 0.23 | 82 | 989.3 |
| 20260508190548 | 18 | 196 | 4.8 | 12.9 | 0.00 | 0.23 | 0.23 | 83 | 989.4 |
| 20260508190047 | 18 | 185 | 4.8 | 12.9 | 0.00 | 0.23 | 0.23 | 87 | 989.4 |
| 20260508185547 | 17 | 158 | 1.6 | 11.3 | 0.00 | 0.23 | 0.23 | 90 | 989.5 |
| 20260508185043 | 17 | 156 | 3.2 | 11.3 | 0.00 | 0.23 | 0.23 | 92 | 989.5 |
| 20260508184550 | 17 | 189 | 6.4 | 11.3 | 0.00 | 0.23 | 0.23 | 93 | 989.5 |
| 20260508184040 | 16 | 140 | 3.2 | 8.0 | 0.00 | 0.23 | 0.23 | 96 | 989.6 |
| 20260508183539 | 16 | 132 | 3.2 | 8.0 | 0.00 | 0.23 | 0.23 | 96 | 989.7 |
| 20260508183046 | 16 | 180 | 4.8 | 8.0 | 0.00 | 0.23 | 0.23 | 97 | 989.7 |
| 20260508182538 | 16 | 130 | 1.6 | 9.7 | 0.00 | 0.23 | 0.23 | 97 | 989.7 |
| 20260508182036 | 15 | 188 | 3.2 | 8.0 | 0.00 | 0.23 | 0.23 | 97 | 989.9 |
| 20260508181535 | 15 | 184 | 4.8 | 8.0 | 0.00 | 0.23 | 0.23 | 97 | 989.9 |
| 20260508181034 | 14 | 180 | 1.6 | 11.3 | 0.00 | 0.23 | 0.23 | 97 | 990.0 |
| 20260508180532 | 14 | 180 | 4.8 | 11.3 | 0.00 | 0.23 | 0.23 | 97 | 990.0 |
| 20260508180030 | 14 | 196 | 3.2 | 8.0 | 0.00 | 0.23 | 0.23 | 97 | 990.0 |
| 20260508175530 | 14 | 198 | 3.2 | 8.0 | 0.00 | 0.23 | 0.23 | 97 | 990.1 |
| 20260508175031 | 14 | 176 | 3.2 | 8.0 | 0.00 | 0.23 | 0.23 | 97 | 990.1 |
| 20260508174546 | 14 | 177 | 0.0 | 8.0 | 0.00 | 0.23 | 0.23 | 97 | 990.1 |
| 20260508174032 | 14 | 177 | 3.2 | 8.0 | 0.00 | 0.23 | 0.23 | 97 | 990.2 |
| 20260508173529 | 13 | 177 | 0.0 | 4.8 | 0.00 | 0.23 | 0.23 | 97 | 990.2 |
| 20260508173031 | 13 | 177 | 1.6 | 6.4 | 0.00 | 0.23 | 0.23 | 97 | 990.2 |
| 20260508172527 | 13 | 177 | 1.6 | 6.4 | 0.00 | 0.23 | 0.23 | 97 | 990.2 |
| 20260508172026 | 13 | 175 | 1.6 | 8.0 | 0.00 | 0.23 | 0.23 | 97 | 990.2 |
| 20260508171526 | 13 | 176 | 0.0 | 8.0 | 0.00 | 0.23 | 0.23 | 97 | 990.2 |
| 20260508171027 | 13 | 175 | 3.2 | 6.4 | 0.00 | 0.23 | 0.23 | 97 | 990.1 |
| 20260508170525 | 13 | 175 | 1.6 | 4.8 | 0.00 | 0.23 | 0.23 | 97 | 990.1 |
| 20260508170031 | 13 | 175 | 0.0 | 4.8 | 0.00 | 0.23 | 0.23 | 97 | 990.1 |
| 20260508165525 | 13 | 175 | 1.6 | 4.8 | 0.00 | 0.23 | 0.23 | 97 | 990.1 |
| 20260508165025 | 13 | 175 | 1.6 | 6.4 | 0.03 | 0.23 | 0.23 | 97 | 990.1 |
| 20260508164525 | 13 | 175 | 1.6 | 6.4 | 0.05 | 0.23 | 0.23 | 97 | 990.0 |
| 20260508164025 | 13 | 174 | 0.0 | 11.3 | 0.10 | 0.23 | 0.23 | 97 | 990.0 |
| 20260508163524 | 13 | 146 | 0.0 | 4.8 | 0.13 | 0.23 | 0.23 | 97 | 990.1 |
| 20260508163038 | 13 | 146 | 0.0 | 3.2 | 0.15 | 0.23 | 0.23 | 97 | 990.0 |
| 20260508162523 | 13 | 146 | 1.6 | 4.8 | 0.18 | 0.23 | 0.23 | 97 | 990.0 |
| 20260508162022 | 13 | 146 | 1.6 | 4.8 | 0.23 | 0.23 | 0.23 | 97 | 990.1 |
| 20260508161522 | 13 | 146 | 0.0 | 3.2 | 0.23 | 0.23 | 0.23 | 97 | 990.1 |
| 20260508161023 | 13 | 146 | 0.0 | 1.6 | 0.23 | 0.23 | 0.23 | 97 | 990.0 |
| 20260508160525 | 13 | 156 | 0.0 | 3.2 | 0.23 | 0.23 | 0.23 | 97 | 990.1 |
| 20260508160024 | 13 | 156 | 0.0 | 4.8 | 0.23 | 0.23 | 0.23 | 97 | 990.0 |
| 20260508155521 | 13 | 156 | 1.6 | 4.8 | 0.23 | 0.23 | 0.23 | 97 | 990.0 |
| 20260508155021 | 13 | 156 | 0.0 | 4.8 | 0.20 | 0.20 | 0.20 | 97 | 990.1 |
| 20260508154521 | 13 | 157 | 1.6 | 4.8 | 0.18 | 0.18 | 0.18 | 97 | 990.2 |